STARLINK-36595, 67639

Orbit data source: Space-Track

STARLINK-36595, 67639 is a payload satellite owned by SpaceX/Seattle (US) in LEO that was launched on Fri, 30 Jan 2026 UTC via an FALCON 9 launch vehicle from the Air Force Eastern Test Range (AFETR). Payload-class satellites include a variety of spacecraft equipped with specific instruments for various scientific and technological missions. These include communications satellites like Starlink; space stations such as the ISS; scientific satellites like the Hubble; Earth observation satellites from companies like Planet Labs, Umbra, and HawkEye 360; GPS; miniature CubeSats for education and research; and military/defense satellites.

Loading next visibility...
Identifier
67639, 2026-020Y
Orbit
LEO
Country
Flag of USUS
Related business
Manufacturer
SpaceX/Seattle
Mission
Operational spacecraft
Bus & Motor
STARLINK V2MO, Unknown motor
Mass
575 kg wet, ~530 kg dry
Launch date (UTC)
2026-01-30 (2 months ago)
Launch vehicle
FALCON 9
Launch site
Air Force Eastern Test Range (AFETR)
Object type
Payload
Rocket body
Debris
Shape & HBR
Unknown shape, 17.7 m
Radar Cross Section
RCS unknown

Expand to show TLE details & history
Last TLE update: 5 hours ago

TLE from 5 hours ago
0 STARLINK-36595
1 67639U 26020Y   26104.85086411  .00010079  00000-0  37522-3 0  9996
2 67639  43.0025 295.5802 0001975 262.2290  97.8337 15.27587134 11645
Epoch: 2026-04-14T20:25Z
TLE epoch observation values (Epoch: 2026-04-14T20:25:14.659Z)
Latitude
-0.00003°
Longitude
146.24789°
Altitude
482.988 km
Speed
7.626 km/s
True Right ascension
19h 42m 19s
True Declination
0° 00' 00"
Sunlit
Object was in daylight at epoch
Visualization orbit readout
Latitude
Unknown
Longitude
Unknown
Altitude
Unknown
Speed
Unknown
Apparent Right ascension
Unknown
Apparent Declination
Unknown
Sunlit
N/A
Visualization observer readout
Local Sidereal Time
08:08:23
Azimuth
Unknown
Elevation
Unknown
Doppler factor
Unknown
Orbital elements
Apogee altitude
486.328 km
Perigee altitude
483.617 km
Semi-major axis
6,863.109 km
Eccentricity
0.0002
Inclination
43.0025°
RAAN
295.5802°
Arg. of periapsis
262.229°
True anomaly
97.85612°
Mean anomaly
97.8337°
Eccentric anomaly
97.84491°
Mean motion
3.81735 °/min
Orbital period
94.31 mins
BSTAR
0.00037522
Loading maneuver chart data...
Computing Atmospheric mass density...
Loading historical data...
Loading historical data...
Loading historical data...
Loading historical data...
Loading historical data...
Loading historical data...
Loading historical data...

Documentation

Showing up to 5 results
|